Location: Newark
(39.1400°N, 92.7000°W)
Time: 09:22:58
(UTC+00:00)

ISS - Visible Passes

Search period start: 21 August 2019 00:00
Search period end: 31 August 2019 00:00
Orbit: 410 x 420 km, 51.6° (Epoch: 21 August)

Date Brightness Start Highest point End Pass type
(mag) Time Alt. Az. Time Alt. Az. Time Alt. Az.
25 Aug -1.3 10:35:16 10° S 10:37:31 17° SE 10:39:47 10° E visible
27 Aug -3.1 10:33:52 15° SSW 10:36:25 51° SE 10:39:40 10° ENE visible
28 Aug -2.3 09:47:18 26° SSE 09:47:42 27° SE 09:50:35 10° ENE visible
29 Aug -0.7 09:00:39 12° E 09:00:39 12° E 09:01:05 10° E visible
29 Aug -3.4 10:33:32 22° WSW 10:35:27 53° NW 10:38:44 10° NE visible
30 Aug -3.7 09:46:49 77° ENE 09:46:49 77° ENE 09:49:57 10° NE visible
